TimeEDT,TemperatureF,Dew PointF,Humidity,Sea Level PressureIn,VisibilityMPH,Wind Direction,Wind SpeedMPH,Gust SpeedMPH,PrecipitationIn,Events,Conditions,WindDirDegrees,DateUTC
12:15 AM,24.8,8.6,50,29.62,10.0,SE,3.5,-,N/A,,Overcast,130,2014-03-11 04:15:00
12:35 AM,23.0,10.4,59,29.63,10.0,South,6.9,-,N/A,,Overcast,170,2014-03-11 04:35:00
12:55 AM,23.0,10.4,59,29.62,10.0,SSE,8.1,-,N/A,,Overcast,160,2014-03-11 04:55:00
1:15 AM,23.0,10.4,59,29.61,10.0,SSE,9.2,-,N/A,,Overcast,150,2014-03-11 05:15:00
1:35 AM,23.0,12.2,63,29.61,10.0,SSE,9.2,-,N/A,,Overcast,150,2014-03-11 05:35:00
1:55 AM,21.2,12.2,68,29.60,10.0,SSE,6.9,-,N/A,,Overcast,150,2014-03-11 05:55:00
2:15 AM,21.2,12.2,68,29.58,10.0,SE,8.1,-,N/A,,Overcast,130,2014-03-11 06:15:00
2:35 AM,21.2,12.2,68,29.58,10.0,SE,10.4,-,N/A,,Overcast,140,2014-03-11 06:35:00
2:55 AM,21.2,12.2,68,29.57,10.0,SE,9.2,-,N/A,,Overcast,140,2014-03-11 06:55:00
3:15 AM,21.2,12.2,68,29.56,10.0,SE,9.2,-,N/A,,Overcast,130,2014-03-11 07:15:00
3:35 AM,21.2,12.2,68,29.55,10.0,SE,9.2,-,N/A,,Overcast,140,2014-03-11 07:35:00
3:55 AM,21.2,14.0,74,29.55,10.0,SE,8.1,-,N/A,,Overcast,140,2014-03-11 07:55:00
4:15 AM,21.2,15.8,80,29.55,3.0,SE,8.1,-,N/A,,Overcast,140,2014-03-11 08:15:00
4:35 AM,21.2,15.8,80,29.54,4.0,SSE,9.2,-,N/A,,Overcast,150,2014-03-11 08:35:00
4:55 AM,21.2,15.8,80,29.54,2.5,SE,8.1,-,N/A,,Overcast,140,2014-03-11 08:55:00
5:15 AM,21.2,15.8,80,29.54,3.0,SSE,8.1,-,N/A,,Overcast,150,2014-03-11 09:15:00
5:35 AM,21.2,15.8,80,29.53,2.5,SSE,9.2,-,N/A,,Overcast,160,2014-03-11 09:35:00
5:55 AM,21.2,15.8,80,29.52,9.0,SE,8.1,-,N/A,,Mostly Cloudy,140,2014-03-11 09:55:00
6:15 AM,21.2,17.6,86,29.51,4.0,SE,12.7,16.1,N/A,,Overcast,140,2014-03-11 10:15:00
6:35 AM,21.2,17.6,86,29.50,8.0,SSE,10.4,17.3,N/A,,Overcast,150,2014-03-11 10:35:00
6:55 AM,21.2,17.6,86,29.49,1.8,SE,9.2,16.1,N/A,,Overcast,140,2014-03-11 10:55:00
7:15 AM,21.2,17.6,86,29.48,1.2,SE,11.5,-,N/A,,Overcast,140,2014-03-11 11:15:00
7:35 AM,23.0,17.6,80,29.48,1.2,SSE,11.5,-,N/A,,Overcast,160,2014-03-11 11:35:00
7:55 AM,23.0,17.6,80,29.48,1.2,SSE,12.7,18.4,N/A,,Overcast,150,2014-03-11 11:55:00
8:15 AM,23.0,17.6,80,29.47,1.5,SSE,9.2,16.1,N/A,,Overcast,150,2014-03-11 12:15:00
8:35 AM,23.0,17.6,80,29.47,1.5,SSE,10.4,-,N/A,,Overcast,160,2014-03-11 12:35:00
8:55 AM,23.0,17.6,80,29.47,1.8,SSE,11.5,-,N/A,,Overcast,150,2014-03-11 12:55:00
9:15 AM,23.0,17.6,80,29.47,1.5,SSE,9.2,-,N/A,,Overcast,160,2014-03-11 13:15:00
9:35 AM,24.8,17.6,74,29.46,1.8,SSE,11.5,-,N/A,,Overcast,150,2014-03-11 13:35:00
9:55 AM,24.8,19.4,80,29.46,3.0,SSE,12.7,-,N/A,,Overcast,150,2014-03-11 13:55:00
10:15 AM,24.8,19.4,80,29.45,3.0,SSE,12.7,19.6,N/A,,Overcast,150,2014-03-11 14:15:00
10:35 AM,26.6,19.4,74,29.45,3.0,SSE,10.4,-,N/A,,Overcast,160,2014-03-11 14:35:00
10:55 AM,26.6,19.4,74,29.45,8.0,SSE,12.7,19.6,N/A,,Overcast,150,2014-03-11 14:55:00
11:15 AM,26.6,19.4,74,29.45,3.0,SSE,10.4,-,N/A,,Overcast,160,2014-03-11 15:15:00
11:35 AM,26.6,21.2,80,29.45,5.0,SSE,11.5,-,N/A,,Overcast,150,2014-03-11 15:35:00
11:55 AM,26.6,21.2,80,29.44,5.0,SSE,10.4,-,N/A,,Overcast,150,2014-03-11 15:55:00
12:15 PM,26.6,21.2,80,29.44,5.0,SSE,9.2,-,N/A,,Overcast,160,2014-03-11 16:15:00
12:35 PM,26.6,21.2,80,29.44,9.0,SSE,8.1,-,N/A,,Overcast,150,2014-03-11 16:35:00
12:55 PM,28.4,21.2,74,29.43,10.0,SSE,9.2,-,N/A,,Overcast,150,2014-03-11 16:55:00
1:15 PM,28.4,23.0,80,29.43,10.0,SSE,5.8,-,N/A,,Overcast,160,2014-03-11 17:15:00
1:35 PM,28.4,23.0,80,29.42,10.0,SSE,5.8,-,N/A,,Overcast,160,2014-03-11 17:35:00
1:55 PM,28.4,24.8,86,29.43,10.0,SSE,4.6,-,N/A,,Overcast,150,2014-03-11 17:55:00
2:15 PM,30.2,24.8,80,29.44,10.0,SSE,5.8,-,N/A,,Overcast,160,2014-03-11 18:15:00
2:35 PM,30.2,24.8,80,29.44,10.0,South,5.8,-,N/A,,Overcast,170,2014-03-11 18:35:00
2:55 PM,30.2,26.6,86,29.44,10.0,South,5.8,-,N/A,,Overcast,170,2014-03-11 18:55:00
3:15 PM,32.0,26.6,80,29.45,10.0,South,5.8,-,N/A,,Overcast,190,2014-03-11 19:15:00
3:35 PM,33.8,26.6,75,29.45,10.0,SSW,6.9,-,N/A,,Overcast,200,2014-03-11 19:35:00
3:55 PM,33.8,26.6,75,29.45,10.0,SSW,6.9,-,N/A,,Overcast,200,2014-03-11 19:55:00
4:15 PM,33.8,28.4,81,29.45,10.0,South,4.6,-,N/A,,Overcast,180,2014-03-11 20:15:00
4:35 PM,33.8,28.4,81,29.46,10.0,South,5.8,-,N/A,,Overcast,190,2014-03-11 20:35:00
4:55 PM,33.8,26.6,75,29.47,10.0,SSW,6.9,-,N/A,,Overcast,210,2014-03-11 20:55:00
5:15 PM,33.8,28.4,81,29.48,10.0,SSW,5.8,-,N/A,,Overcast,210,2014-03-11 21:15:00
5:35 PM,33.8,28.4,81,29.48,10.0,Calm,Calm,-,N/A,,Overcast,0,2014-03-11 21:35:00
5:55 PM,33.8,26.6,75,29.49,10.0,WSW,5.8,-,N/A,,Overcast,240,2014-03-11 21:55:00
6:15 PM,33.8,28.4,81,29.50,10.0,WSW,4.6,-,N/A,,Overcast,250,2014-03-11 22:15:00
6:35 PM,33.8,26.6,75,29.51,10.0,WSW,4.6,-,N/A,,Overcast,250,2014-03-11 22:35:00
6:55 PM,33.8,26.6,75,29.52,10.0,Calm,Calm,-,N/A,,Overcast,0,2014-03-11 22:55:00
7:15 PM,33.8,26.6,75,29.53,10.0,Calm,Calm,-,N/A,,Overcast,0,2014-03-11 23:15:00
7:35 PM,33.8,26.6,75,29.54,10.0,SW,3.5,-,N/A,,Overcast,230,2014-03-11 23:35:00
7:55 PM,33.8,26.6,75,29.53,10.0,Calm,Calm,-,N/A,,Overcast,0,2014-03-11 23:55:00
8:15 PM,32.0,26.6,80,29.54,10.0,SW,4.6,-,N/A,,Overcast,220,2014-03-12 00:15:00
8:35 PM,33.8,26.6,75,29.55,10.0,WSW,4.6,-,N/A,,Overcast,240,2014-03-12 00:35:00
8:55 PM,33.8,26.6,75,29.56,10.0,WSW,4.6,-,N/A,,Overcast,240,2014-03-12 00:55:00
9:15 PM,33.8,26.6,75,29.56,10.0,SW,5.8,-,N/A,,Overcast,230,2014-03-12 01:15:00
9:35 PM,33.8,26.6,75,29.57,10.0,WSW,5.8,-,N/A,,Overcast,240,2014-03-12 01:35:00
9:55 PM,33.8,24.8,70,29.58,10.0,WSW,8.1,-,N/A,,Overcast,250,2014-03-12 01:55:00
10:15 PM,33.8,24.8,70,29.59,10.0,West,10.4,-,N/A,,Overcast,270,2014-03-12 02:15:00
10:35 PM,33.8,23.0,65,29.60,10.0,West,10.4,-,N/A,,Overcast,270,2014-03-12 02:35:00
10:55 PM,33.8,21.2,60,29.59,10.0,West,9.2,-,N/A,,Overcast,260,2014-03-12 02:55:00
11:15 PM,32.0,21.2,64,29.60,10.0,West,5.8,-,N/A,,Overcast,260,2014-03-12 03:15:00
11:35 PM,32.0,21.2,64,29.60,10.0,WSW,6.9,-,N/A,,Overcast,250,2014-03-12 03:35:00
11:55 PM,32.0,21.2,64,29.60,10.0,West,4.6,-,N/A,,Overcast,260,2014-03-12 03:55:00